Location: Unspecified
(34.4950°S, 58.5160°W)
Time: 03:49:24
(UTC+00:00)

ACS3 Solar Sail - Pass Details

Date: 19 February 2026
Orbit: 885 x 974 km, 97.2° (Epoch: 11 March)

Event Time Altitude Azimuth Distance (km) Brightness Sun altitude
Exits shadow 04:11:14 17° 146° (SSE) 2,241 4.1 -44.2°
Drops below altitude 10° 04:13:03 10° 161° (SSE) 2,694 4.7 -44.2°
Sets 04:16:05 0° 175° (S) 3,664 5.6 -44.2°
